When you browse on this site, cookies collect data to enhance your experience and personalize the content and advertising you see.
Visit our Privacy Policy to learn more. By continuing to use the site, you agree to this use of cookies and data.
  • In Latvia
  • List of Countries
  • For 7 days
  • Water Temperature
  • Weather Map
  • Weather Widgets
  • user-avatar
    Login

    Hourly Weather Carouge

    Today, 23 September, Monday

    Time Temperature Precipitation Wind Pressure Humidity
    00:00 +15°C° 0 mm 1 mps 726 mmHg 97%
    01:00 +14°C° 0.2 mm 1 mps 726 mmHg 97%
    02:00 +14°C° 0.2 mm 1 mps 726 mmHg 96%
    03:00 +14°C° 0.2 mm 1 mps 725 mmHg 96%
    04:00 +14°C° 0 mm 1 mps 726 mmHg 96%
    05:00 +13°C° 0 mm 1 mps 726 mmHg 96%
    06:00 +13°C° 0 mm 1 mps 727 mmHg 96%
    07:00 +15°C° 0.1 mm 1 mps 727 mmHg 92%
    08:00 +16°C° 0.1 mm 1 mps 727 mmHg 87%
    09:00 +16°C° 0.1 mm 0 mps 727 mmHg 82%
    10:00 +19°C° 0.1 mm 1 mps 727 mmHg 75%
    11:00 +21°C° 0.1 mm 1 mps 727 mmHg 67%
    12:00 +21°C° 0 mm 1 mps 727 mmHg 60%
    13:00 +21°C° 0.1 mm 1 mps 727 mmHg 61%
    14:00 +21°C° 0.1 mm 1 mps 726 mmHg 62%
    15:00 +21°C° 0.1 mm 1 mps 726 mmHg 63%
    16:00 +19°C° 0 mm 1 mps 726 mmHg 71%
    17:00 +16°C° 0 mm 1 mps 726 mmHg 79%
    18:00 +14°C° 0 mm 1 mps 726 mmHg 87%
    19:00 +14°C° 0 mm 1 mps 727 mmHg 88%
    20:00 +13°C° 0 mm 1 mps 727 mmHg 88%
    21:00 +13°C° 0 mm 1 mps 727 mmHg 89%
    22:00 +12°C° 0 mm 0 mps 727 mmHg 89%
    23:00 +11°C° 0 mm 0 mps 727 mmHg 89%

    Tomorrow, 24 September, Tuesday

    Time Temperature Precipitation Wind Pressure Humidity
    00:00 +11°C° 0 mm 0 mps 727 mmHg 90%
    01:00 +11°C° 0 mm 0 mps 726 mmHg 90%
    02:00 +11°C° 0 mm 0 mps 726 mmHg 90%
    03:00 +11°C° 0 mm 0 mps 726 mmHg 90%
    04:00 +11°C° 0 mm 0 mps 725 mmHg 89%
    05:00 +11°C° 0 mm 0 mps 725 mmHg 88%
    06:00 +12°C° 0 mm 0 mps 725 mmHg 87%
    07:00 +14°C° 0 mm 1 mps 725 mmHg 81%
    08:00 +16°C° 0 mm 1 mps 725 mmHg 75%
    09:00 +19°C° 0 mm 1 mps 725 mmHg 69%
    10:00 +17°C° 0.4 mm 2 mps 725 mmHg 77%
    11:00 +15°C° 0.4 mm 2 mps 725 mmHg 85%
    12:00 +14°C° 0.4 mm 2 mps 724 mmHg 92%
    13:00 +15°C° 0 mm 2 mps 724 mmHg 90%
    14:00 +15°C° 0 mm 2 mps 724 mmHg 88%
    15:00 +16°C° 0 mm 2 mps 724 mmHg 86%
    16:00 +15°C° 0.3 mm 2 mps 724 mmHg 89%
    17:00 +15°C° 0.3 mm 2 mps 724 mmHg 91%
    18:00 +14°C° 0.3 mm 2 mps 724 mmHg 94%
    19:00 +15°C° 0.2 mm 2 mps 724 mmHg 94%
    20:00 +15°C° 0.2 mm 2 mps 724 mmHg 94%
    21:00 +15°C° 0.2 mm 2 mps 724 mmHg 94%
    22:00 +15°C° 0.1 mm 2 mps 724 mmHg 94%
    23:00 +15°C° 0.1 mm 2 mps 724 mmHg 94%

    Day after tomorrow, 25 September, Wednesday

    Time Temperature Precipitation Wind Pressure Humidity
    00:00 +15°C° 0.1 mm 2 mps 724 mmHg 95%
    01:00 +14°C° 0.3 mm 2 mps 724 mmHg 95%
    02:00 +14°C° 0.3 mm 2 mps 724 mmHg 95%
    03:00 +14°C° 0.3 mm 2 mps 724 mmHg 95%
    04:00 +14°C° 0.3 mm 2 mps 724 mmHg 94%
    05:00 +14°C° 0.3 mm 2 mps 724 mmHg 94%
    06:00 +14°C° 0.3 mm 1 mps 724 mmHg 94%
    07:00 +14°C° 0.2 mm 2 mps 724 mmHg 92%
    08:00 +15°C° 0.2 mm 2 mps 724 mmHg 91%
    09:00 +15°C° 0.2 mm 2 mps 724 mmHg 90%
    10:00 +16°C° 0.4 mm 2 mps 724 mmHg 86%
    11:00 +17°C° 0.4 mm 3 mps 724 mmHg 81%
    12:00 +18°C° 0.4 mm 3 mps 724 mmHg 76%
    13:00 +17°C° 0.4 mm 3 mps 723 mmHg 78%
    14:00 +17°C° 0.4 mm 2 mps 723 mmHg 81%
    15:00 +17°C° 0.4 mm 2 mps 723 mmHg 83%
    16:00 +16°C° 0.1 mm 1 mps 723 mmHg 86%
    17:00 +15°C° 0.1 mm 1 mps 724 mmHg 88%
    18:00 +13°C° 0.1 mm 1 mps 724 mmHg 91%
    19:00 +13°C° 0.1 mm 1 mps 724 mmHg 91%
    20:00 +13°C° 0.1 mm 1 mps 725 mmHg 91%
    21:00 +13°C° 0.1 mm 1 mps 725 mmHg 91%
    22:00 +13°C° 0.7 mm 1 mps 725 mmHg 93%
    23:00 +13°C° 0.7 mm 1 mps 725 mmHg 94%

    26 September, Thursday

    Time Temperature Precipitation Wind Pressure Humidity
    00:00 +13°C° 0.7 mm 2 mps 725 mmHg 95%
    01:00 +13°C° 0.5 mm 1 mps 725 mmHg 96%
    02:00 +14°C° 0.5 mm 1 mps 725 mmHg 96%
    03:00 +14°C° 0.5 mm 1 mps 725 mmHg 96%
    04:00 +14°C° 0.2 mm 1 mps 726 mmHg 96%
    05:00 +14°C° 0.2 mm 1 mps 726 mmHg 95%
    06:00 +14°C° 0.2 mm 1 mps 726 mmHg 95%
    07:00 +14°C° 0.1 mm 1 mps 726 mmHg 94%
    08:00 +15°C° 0.1 mm 1 mps 727 mmHg 92%
    09:00 +16°C° 0.1 mm 1 mps 727 mmHg 91%
    10:00 +18°C° 0 mm 1 mps 727 mmHg 85%
    11:00 +19°C° 0 mm 1 mps 727 mmHg 79%
    12:00 +21°C° 0 mm 1 mps 727 mmHg 73%
    13:00 +21°C° 0 mm 1 mps 727 mmHg 71%
    14:00 +21°C° 0 mm 1 mps 727 mmHg 69%
    15:00 +22°C° 0 mm 1 mps 727 mmHg 67%
    16:00 +20°C° 0 mm 1 mps 727 mmHg 75%
    17:00 +18°C° 0 mm 1 mps 727 mmHg 83%
    18:00 +15°C° 0 mm 1 mps 727 mmHg 91%
    19:00 +15°C° 0 mm 1 mps 728 mmHg 91%
    20:00 +15°C° 0 mm 1 mps 728 mmHg 91%
    21:00 +14°C° 0 mm 1 mps 728 mmHg 91%
    22:00 +14°C° 0 mm 1 mps 728 mmHg 91%
    23:00 +14°C° 0 mm 1 mps 728 mmHg 91%

    27 September, Friday

    Time Temperature Precipitation Wind Pressure Humidity
    00:00 +14°C° 0 mm 1 mps 728 mmHg 91%
    01:00 +14°C° 0 mm 1 mps 728 mmHg 91%
    02:00 +14°C° 0 mm 1 mps 728 mmHg 91%
    03:00 +14°C° 0 mm 1 mps 728 mmHg 92%
    04:00 +14°C° 0 mm 1 mps 728 mmHg 92%
    05:00 +14°C° 0 mm 1 mps 728 mmHg 92%
    06:00 +14°C° 0 mm 1 mps 728 mmHg 93%
    07:00 +16°C° 0 mm 1 mps 728 mmHg 86%
    08:00 +19°C° 0 mm 1 mps 728 mmHg 79%
    09:00 +21°C° 0 mm 1 mps 728 mmHg 71%
    10:00 +21°C° 0 mm 2 mps 728 mmHg 66%
    11:00 +23°C° 0 mm 2 mps 728 mmHg 60%
    12:00 +24°C° 0 mm 3 mps 728 mmHg 55%
    13:00 +24°C° 0 mm 3 mps 728 mmHg 55%
    14:00 +24°C° 0 mm 2 mps 727 mmHg 56%
    15:00 +23°C° 0 mm 2 mps 727 mmHg 57%
    16:00 +20°C° 0 mm 2 mps 727 mmHg 63%
    17:00 +19°C° 0 mm 1 mps 727 mmHg 70%
    18:00 +16°C° 0 mm 1 mps 727 mmHg 76%
    19:00 +18°C° 0 mm 1 mps 728 mmHg 74%
    20:00 +18°C° 0 mm 1 mps 728 mmHg 73%
    21:00 +18°C° 0 mm 1 mps 729 mmHg 71%
    22:00 +18°C° 0 mm 1 mps 729 mmHg 73%
    23:00 +16°C° 0 mm 1 mps 729 mmHg 75%

    28 September, Saturday

    Time Temperature Precipitation Wind Pressure Humidity
    00:00 +16°C° 0 mm 1 mps 729 mmHg 78%
    01:00 +16°C° 0 mm 1 mps 729 mmHg 80%
    02:00 +16°C° 0 mm 1 mps 729 mmHg 82%
    03:00 +15°C° 0 mm 1 mps 729 mmHg 84%
    04:00 +15°C° 0 mm 1 mps 729 mmHg 86%
    05:00 +15°C° 0 mm 1 mps 729 mmHg 88%
    06:00 +14°C° 0 mm 1 mps 729 mmHg 90%
    07:00 +16°C° 0 mm 1 mps 729 mmHg 84%
    08:00 +19°C° 0 mm 1 mps 729 mmHg 78%
    09:00 +20°C° 0 mm 1 mps 729 mmHg 73%
    10:00 +21°C° 0 mm 1 mps 729 mmHg 67%
    11:00 +22°C° 0 mm 1 mps 729 mmHg 62%
    12:00 +23°C° 0 mm 2 mps 729 mmHg 56%
    13:00 +23°C° 0 mm 2 mps 728 mmHg 56%
    14:00 +23°C° 0 mm 1 mps 728 mmHg 56%
    15:00 +23°C° 0 mm 1 mps 727 mmHg 56%
    16:00 +21°C° 0 mm 1 mps 727 mmHg 65%
    17:00 +19°C° 0 mm 1 mps 727 mmHg 74%
    18:00 +15°C° 0 mm 1 mps 727 mmHg 83%
    19:00 +15°C° 0 mm 1 mps 727 mmHg 83%
    20:00 +15°C° 0 mm 1 mps 727 mmHg 82%
    21:00 +14°C° 0 mm 1 mps 727 mmHg 81%
    22:00 +14°C° 0 mm 1 mps 727 mmHg 81%
    23:00 +14°C° 0 mm 1 mps 726 mmHg 81%
    Show more